This is the latest recevied weather packets stored in our database for station/object XE2MDH-15. If no packets are shown the sender has not sent any weather packets the latest 10 day(s).
| Time | Temp. | Humidity | Pressure | Rain* | Wind** | Luminosity | Snow |
|---|---|---|---|---|---|---|---|
| 1777756982 | 49.44° C | 25% | 807 hPa | - | - | - | - |
| 1777756082 | 48.89° C | 25% | 807.1 hPa | - | - | - | - |
| 1777755181 | 49.44° C | 26% | 807.3 hPa | - | - | - | - |
| 1777754281 | 48.33° C | 26% | 807.5 hPa | - | - | - | - |
| 1777753381 | 47.22° C | 26% | 807.8 hPa | - | - | - | - |
| 1777752481 | 45° C | 26% | 808 hPa | - | - | - | - |
| 1777751581 | 43.89° C | 26% | 808.1 hPa | - | - | - | - |
| 1777750681 | 41.11° C | 26% | 808.3 hPa | - | - | - | - |
| 1777749781 | 40.56° C | 26% | 808.6 hPa | - | - | - | - |
| 1777748880 | 37.78° C | 26% | 808.8 hPa | - | - | - | - |
| 1777747980 | 36.67° C | 26% | 808.8 hPa | - | - | - | - |
| 1777747080 | 35° C | 27% | 809 hPa | - | - | - | - |
| 1777746180 | 33.33° C | 27% | 809.2 hPa | - | - | - | - |
| 1777745280 | 32.22° C | 28% | 809.3 hPa | - | - | - | - |
| 1777744380 | 31.11° C | 29% | 809.6 hPa | - | - | - | - |
| 1777743479 | 27.22° C | 29% | 809.7 hPa | - | - | - | - |
| 1777742271 | 26.67° C | 29% | 809.8 hPa | - | - | - | - |
| 1777741095 | 26.67° C | 30% | 810 hPa | - | - | - | - |
| 1777739949 | 26.67° C | 30% | 810 hPa | - | - | - | - |
| 1777738841 | 26.67° C | 31% | 810.1 hPa | - | - | - | - |
| 1777737665 | 26.67° C | 32% | 810 hPa | - | - | - | - |
| 1777736553 | 25° C | 32% | 810 hPa | - | - | - | - |
| 1777735536 | 22.22° C | 32% | 809.9 hPa | - | - | - | - |
| 1777734455 | 17.22° C | 30% | 809.6 hPa | - | - | - | - |
| 1777733532 | 13.33° C | 27% | 809.6 hPa | - | - | - | - |
* Rain since midnight (hover to see other rain measurements)
** Current wind speed in m/s (hover to see current wind gust speed)